Location: Cantaing
(50.1487°N, 3.1675°E)
Time: 10:51:23
(UTC+00:00)

Cosmos 1470 Rocket - Pass Details

Date: 14 January 2026
Orbit: 597 x 626 km, 82.5° (Epoch: 10 February)

Event Time Altitude Azimuth Distance (km) Brightness Sun altitude
Rises 06:28:04 0° 175° (S) 2,844 7.3 -11.3°
Reaches altitude 10° 06:30:19 10° 171° (S) 1,943 6.5 -11.0°
Maximum altitude 06:34:28 52° 95° (E) 749 4.4 -10.4°
Drops below altitude 10° 06:38:40 10° 19° (NNE) 1,950 6.1 -9.7°
Sets 06:40:55 0° 14° (NNE) 2,856 6.9 -9.4°
